Saint Martin Island, Netherlands Antilles

2:42 AM on February 26, 2017 (GMT +0000)
Saint Martin Island

Weather History for 78866 - March, 2014

Change the Weather History Date:

Sunday, March 23, 2014

  Actual Average Record
Temperature  
Mean Temperature 80 °F -  
Max Temperature 82 °F 83 °F - ()
Min Temperature 77 °F 74 °F - ()
Cooling Degree Days 14    
Growing Degree Days 30 (Base 50)    
Moisture  
Dew Point 69 °F    
Average Humidity 69    
Maximum Humidity 78    
Minimum Humidity 57    
Precipitation  
Precipitation 0.00 in 0.08 in - ()
Sea Level Pressure  
Sea Level Pressure 30.06 in    
Wind  
Wind Speed 8 mph ()    
Max Wind Speed 15 mph    
Max Gust Speed -    
Visibility 6.2 miles    
Events      
T = Trace of Precipitation, MM = Missing Value Source: Averaged Metar Reports

Daily Weather History Graph

Daily Weather History Graph

Search for Another Location

Airport or City:

Trip Planner

Search our weather history database for the weather conditions in past years. The results will help you decide how hot, cold, wet, or windy it might be!

Date:

Astronomy

Mar. 23, 2014 Rise Set
Actual Time 10:14 AM UTC 10:24 PM UTC
Civil Twilight 9:52 AM UTC 10:45 PM UTC
Nautical Twilight 9:27 AM UTC 11:11 PM UTC
Astronomical Twilight 9:01 AM UTC 11:36 PM UTC
Moon 3:57 AM UTC (3/23) 3:30 PM UTC (3/23)
Length of Visible Light 12h 53m
Length of Day
12h 09m
Waning Gibbous, 56% of the Moon is Illuminated
Mar 23
Waning Gibbous
Mar 24
Last Quarter
Mar 30
New
Apr 7
First Quarter
Apr 15
Full

Hourly Weather History & Observations

Time (GMT) Temp. Heat Index Dew Point Humidity Pressure Visibility Wind Dir Wind Speed Gust Speed Precip Events Conditions
12:00 AM 79 °F - 70 °F 66% 30.10 in 22 mi ESE 6.9 mph - -   Scattered Clouds
12:00 AM 78.8 °F - 69.8 °F 74% 30.09 in 6.2 mi ESE 6.9 mph - N/A   Partly Cloudy
1:00 AM 78.8 °F - 69.8 °F 74% 30.09 in 6.2 mi East 8.1 mph - N/A   Partly Cloudy
2:00 AM 78.8 °F - 69.8 °F 74% 30.12 in 6.2 mi ESE 8.1 mph - N/A   Scattered Clouds
3:00 AM 79 °F - 71 °F 69% 30.12 in 22 mi ESE 8.1 mph - -   Partly Cloudy
3:00 AM 78.8 °F - 71.6 °F 78% 30.09 in 6.2 mi ESE 8.1 mph - N/A   Scattered Clouds
4:00 AM 78.8 °F - 68.0 °F 69% 30.09 in 6.2 mi East 8.1 mph - N/A   Scattered Clouds
5:00 AM 78.8 °F - 68.0 °F 69% 30.06 in 6.2 mi East 6.9 mph - N/A   Scattered Clouds
6:00 AM 78 °F - 69 °F 66% 30.07 in 22 mi East 10.4 mph - -   Partly Cloudy
6:00 AM 78.8 °F - 68.0 °F 69% 30.06 in 6.2 mi East 10.4 mph - N/A   Scattered Clouds
7:00 AM 77.0 °F - 68.0 °F 74% 30.06 in 6.2 mi East 9.2 mph - N/A   Scattered Clouds
8:00 AM 77.0 °F - 68.0 °F 74% 30.06 in 6.2 mi East 9.2 mph - N/A   Partly Cloudy
9:00 AM 78 °F - 68 °F 65% 30.08 in 22 mi East 8.1 mph - -   Scattered Clouds
9:00 AM 77.0 °F - 68.0 °F 74% 30.06 in 6.2 mi East 8.1 mph - N/A   Partly Cloudy
10:00 AM 77.0 °F - 68.0 °F 74% 30.06 in 6.2 mi East 9.2 mph - N/A   Partly Cloudy
11:00 AM 78.8 °F - 68.0 °F 69% 30.06 in 6.2 mi ESE 9.2 mph - N/A   Partly Cloudy
12:00 PM 80 °F - 69 °F 63% 30.09 in 28 mi ESE 9.2 mph - -   Scattered Clouds
12:00 PM 78.8 °F - 69.8 °F 74% 30.09 in 6.2 mi ESE 9.2 mph - N/A   Partly Cloudy
1:00 PM 80.6 °F 83.2 °F 68.0 °F 65% 30.09 in 6.2 mi East 11.5 mph - N/A   Scattered Clouds
2:00 PM 82.4 °F 86.3 °F 69.8 °F 66% 30.09 in 6.2 mi ESE 10.4 mph - N/A   Scattered Clouds
3:00 PM 82 °F - 69 °F 57% 30.10 in 28 mi ESE 11.5 mph - -   Partly Cloudy
3:00 PM 82.4 °F 86.3 °F 69.8 °F 66% 30.09 in 6.2 mi ESE 11.5 mph - N/A   Scattered Clouds
4:00 PM 82.4 °F 86.3 °F 69.8 °F 66% 30.06 in 6.2 mi ESE 11.5 mph - N/A   Scattered Clouds
5:00 PM 82.4 °F 86.3 °F 69.8 °F 66% 30.04 in 6.2 mi SE 15.0 mph - N/A   Partly Cloudy
6:00 PM 82 °F - 70 °F 58% 30.02 in 25 mi SE 9.2 mph - -   Partly Cloudy
6:00 PM 82.4 °F 86.3 °F 69.8 °F 66% 30.01 in 6.2 mi SE 9.2 mph - N/A   Partly Cloudy
7:00 PM 80.6 °F 83.9 °F 69.8 °F 70% 30.01 in 6.2 mi SE 8.1 mph - N/A   Partly Cloudy
8:00 PM 80.6 °F 84.6 °F 71.6 °F 74% 29.98 in 6.2 mi SE 9.2 mph - N/A   Partly Cloudy
9:00 PM 81 °F - 71 °F 63% 30.01 in 25 mi SE 8.1 mph - -   Partly Cloudy
9:00 PM 80.6 °F 83.9 °F 69.8 °F 70% 30.01 in 6.2 mi SE 8.1 mph - N/A   Scattered Clouds
10:00 PM 80.6 °F 83.9 °F 69.8 °F 70% 30.01 in 6.2 mi SE 5.8 mph - N/A   Partly Cloudy
11:00 PM 78.8 °F - 69.8 °F 74% 30.01 in 6.2 mi East 4.6 mph - N/A   Partly Cloudy